Home > Weather > The Hague > Past weeks

Flag for Netherlands Weather for the Past 2 Weeks in The Hague, Netherlands

Now
55 °F

Clear.


Feels Like: 55 °F
Forecast: 52 / 68 °F
Wind: 5 mph from East

Location: Rotterdam Zestienhoven Airport

Current Time: May 5, 2016 at 10:30:59 PM

Latest Report: May 5, 2016 at 9:55 PM


Visibility: N/A

Pressure: 30.07 "Hg

Humidity: 63%

Dew Point: 43 °F

Location of The HagueLocation

Historic Weather in The Hague — Graph

°F

The Hague Temperature Yesterday

Maximum temperature yesterday: 61 °F (at 1:55 PM)
Minimum temperature yesterday: 41 °F (at 1:55 AM)
Average temperature yesterday: 52 °F

High & Low Weather Summary for the Past Weeks

 TemperatureHumidityPressure
High66 °F (May 5, 5:25 PM)100% (Apr 28, 3:25 AM)30.39 "Hg (Apr 28, 3:25 AM)
Low34 °F (Apr 25, 2:25 AM)30% (May 5, 5:25 PM)29.47 "Hg (Apr 26, 5:55 AM)
Average47 °F73%30.05 "Hg
* Reported Apr 20 9:25 PM — May 5 9:25 PM, The Hague, Weather by CustomWeather, © 2016

Note: Actual official high and low records may vary slightly from our data, if they occured in-between our weather recording intervals... More about our weather records

Advertising

The Hague Weather History for the Previous 24 Hours

Scroll right to see more
 ConditionsComfort  
Time TempWeatherWind HumidityBarometerVisibility
9:25 PM
Thu, May 5
55 °FCool.7 mph63%30.07 "HgN/A
8:55 PM59 °FClear.8 mph55%30.07 "HgN/A
8:25 PM59 °FRefreshingly cool.7 mph55%30.09 "HgN/A
7:55 PM63 °FClear.9 mph45%30.09 "HgN/A
7:25 PM63 °FClear.10 mph42%30.09 "HgN/A
6:55 PM64 °FMild.12 mph34%30.09 "HgN/A
6:25 PM64 °FMild.10 mph34%30.12 "HgN/A
5:55 PM64 °FMild.14 mph37%30.12 "HgN/A
5:25 PM66 °FClear.14 mph30%30.12 "HgN/A
4:55 PM64 °FMild.12 mph32%30.15 "HgN/A
4:25 PM64 °FMild.9 mph34%30.15 "HgN/A
3:55 PM64 °FMild.10 mph34%30.18 "HgN/A
3:25 PM64 °FClear.12 mph34%30.18 "HgN/A
2:55 PM64 °FMild.10 mph32%30.18 "HgN/A
2:25 PM64 °FMild.10 mph34%30.21 "HgN/A
1:55 PM63 °FClear.10 mph37%30.21 "HgN/A
1:25 PM64 °FMild.12 mph34%30.21 "HgN/A
12:55 PM63 °FClear.12 mph37%30.21 "HgN/A
12:25 PM63 °FClear.12 mph37%30.24 "HgN/A
11:55 AM61 °FClear.12 mph39%30.24 "HgN/A
11:25 AM61 °FRefreshingly cool.12 mph39%30.24 "HgN/A
10:55 AM61 °FClear.13 mph42%30.24 "HgN/A
10:25 AM59 °FClear.10 mph42%30.27 "HgN/A
9:55 AM57 °FClear.10 mph44%30.27 "HgN/A
9:25 AM55 °FRefreshingly cool.7 mph47%30.27 "HgN/A
8:55 AM54 °FCool.8 mph51%30.27 "HgN/A
8:25 AM52 °FCool.7 mph54%30.27 "HgN/A
7:55 AM50 °FCool.6 mph62%30.27 "HgN/A
7:25 AM48 °FCool.7 mph66%30.27 "HgN/A
6:55 AM46 °FCool.7 mph71%30.27 "HgN/A
6:25 AM45 °FQuite cool.7 mph71%30.27 "HgN/A
5:55 AM45 °FQuite cool.7 mph71%30.27 "HgN/A
5:25 AM45 °FQuite cool.7 mph71%30.27 "HgN/A
4:55 AM45 °FClear.7 mph71%30.27 "HgN/A
4:25 AM46 °FCool.6 mph66%30.27 "HgN/A
3:55 AM46 °FCool.6 mph66%30.30 "HgN/A
3:25 AM48 °FClear.7 mph62%30.30 "HgN/A
2:55 AM48 °FCool.7 mph62%30.30 "HgN/A
2:25 AM50 °FCool.7 mph58%30.30 "HgN/A
1:55 AM48 °FCool.8 mph62%30.30 "HgN/A
1:25 AM48 °FCool.8 mph66%30.30 "HgN/A
12:55 AM48 °FCool.8 mph66%30.30 "HgN/A
12:25 AM50 °FCool.8 mph62%30.33 "HgN/A
11:55 PM
Wed, May 4
50 °FClear.7 mph62%30.33 "HgN/A
11:25 PM52 °FCool.7 mph58%30.33 "HgN/A
10:55 PM52 °FCool.6 mph58%30.33 "HgN/A
10:25 PM54 °FCool.7 mph54%30.33 "HgN/A
Weather by CustomWeather, © 2016

See weather overviewHow to use our weather pages